Printer-friendly version

IAU Minor Planet Center

Minor Planet Center

MPEC 2000-E25: 2000 ED14

The following Minor Planet Electronic Circular may be linked-to from your own Web pages, but must not otherwise be redistributed electronically.


Read MPEC 2000-E24 Read MPEC 2000-E26


M.P.E.C. 2000-E25                                Issued 2000 Mar. 7, 15:46 UT

     The Minor Planet Electronic Circulars contain information on unusual
         minor planets and routine data on comets.  They are published
   on behalf of Commission 20 of the International Astronomical Union by the
          Minor Planet Center, Smithsonian Astrophysical Observatory,
                          Cambridge, MA 02138, U.S.A.

             Prepared using the Tamkin Foundation Computer Network

             BMARSDEN@CFA.HARVARD.EDU or GWILLIAMS@CFA.HARVARD.EDU
          URL http://cfa-www.harvard.edu/iau/mpc.html  ISSN 1523-6714

                                   2000 ED14

Observations:
     K00E14D* C2000 03 04.39562 14 09 06.06 +25 23 44.1          18.6        704
     K00E14D  C2000 03 04.40963 14 09 07.19 +25 24 51.5          18.9        704
     K00E14D  C2000 03 04.42331 14 09 08.18 +25 25 59.1          18.4        704
     K00E14D  C2000 03 04.43706 14 09 09.14 +25 27 05.7          19.1        704
     K00E14D  C2000 03 04.45091 14 09 10.26 +25 28 15.4          19.3        704
     K00E14D  C2000 03 05.11896 14 10 21.55 +26 25 34.6          17.9 V      595
     K00E14D  C2000 03 05.12442 14 10 22.05 +26 26 04.4                      595
     K00E14D  C2000 03 05.12839 14 10 22.35 +26 26 26.5                      595
     K00E14D  C2000 03 05.29814 14 10 45.51 +26 42 09.4          18.2        704
     K00E14D  C2000 03 05.31135 14 10 46.77 +26 43 25.1          18.5        704
     K00E14D  C2000 03 05.32456 14 10 47.99 +26 44 40.5          18.3        704
     K00E14D  C2000 03 05.33779 14 10 49.22 +26 45 56.5          17.9        704
     K00E14D  C2000 03 05.35102 14 10 50.40 +26 47 12.6          18.5        704
     K00E14D  C2000 03 06.93632 14 14 17.41 +29 36 50.5                      587
     K00E14D  C2000 03 06.93979 14 14 17.92 +29 37 16.3                      587
     K00E14D  C2000 03 06.96074 14 14 20.30 +29 39 53.2          17.5 R      046
     K00E14D  C2000 03 06.96182 14 14 20.45 +29 40 00.5                      046
     K00E14D  C2000 03 06.96258 14 14 20.55 +29 40 06.4                      046
     K00E14D  C2000 03 06.96324 14 14 20.57 +29 40 11.2          17.7 R      046
     K00E14D  C2000 03 06.97817 14 14 22.70 +29 42 00.1          18.1 V      611
     K00E14D  C2000 03 06.97998 14 14 22.97 +29 42 14.0          17.9 V      611
     K00E14D  C2000 03 06.98137 14 14 23.20 +29 42 24.8          17.9 V      611
     K00E14D  C2000 03 06.98270 14 14 23.39 +29 42 35.1          18.2 V      611
     K00E14D  C2000 03 07.10641 14 14 38.63 +29 58 14.8          17.7        106
     K00E14D  C2000 03 07.11087 14 14 39.11 +29 58 41.7          18.0 V      557
     K00E14D  C2000 03 07.11180 14 14 39.26 +29 58 48.8                      557
     K00E14D  C2000 03 07.11268 14 14 39.35 +29 58 55.7                      557
     K00E14D  C2000 03 07.11461 14 14 39.58 +29 59 15.9          18.0        106
     K00E14D  C2000 03 07.12029 14 14 40.29 +29 59 59.3          17.7        106

Observer details:
046 Klet.  Observers M. Tichy, Z. Moravec.  0.57-m f/5.2 reflector + CCD.
106 Crni Vrh.  Observer J. Skvarc.  0.36-m f/6.7 Schmidt-Cassegrain + CCD.
557 Ondrejov.  Observers P. Pravec, P. Kusnirak.  0.65-m f/3.6 reflector + CCD.
587 Sormano.  Observers F. Manca, A. Testa.  0.5-m reflector + CCD.
595 Farra d'Isonzo.  Observer E. Pettarin.  0.40-m f/4.5 reflector + CCD.
611 Starkenburg.  Observer M. Busch.  0.45-m f/4.4 reflector + CCD.
704 Lincoln Laboratory ETS, New Mexico.  Observers M. Blythe, F. Shelly,
    M. Bezpalko, M. Elowitz, R. Huber.  Measurers J. Stuart, H. Viggh,
    R. Sayer, J. B. Evans.  1.0-m f/2.15 reflector + CCD.

Orbital elements:
2000 ED14                                                            PHA 0.041
Epoch 2000 Feb. 26.0 TT = JDT 2451600.5                 Williams
M 256.69129              (2000.0)            P               Q
n   1.29209944     Peri.  310.00496     +0.69345816     +0.72030387
a   0.8348442      Node     4.02217     -0.56713187     +0.55997866
e   0.5665065      Incl.   13.75444     -0.44438410     +0.40937298
P   0.76           H   20.9           G   0.15
From 29 observations 2000 Mar. 4-7.

Ephemeris:
2000 ED14                a,e,i = 0.83, 0.57, 14                  q = 0.3619
Date    TT    R. A. (2000) Decl.     Delta      r     Elong.  Phase     V
2000 03 07    14 14.38   +29 45.2    0.104    1.063   130.4    45.3    17.9
2000 03 08    14 17.12   +32 01.0    0.095    1.055   129.5    46.5    17.7
2000 03 09    14 20.53   +34 45.5    0.085    1.048   128.2    48.1    17.5
2000 03 10    14 24.95   +38 08.0    0.076    1.040   126.3    50.3    17.3
2000 03 11    14 31.02   +42 21.4    0.068    1.033   123.6    53.3    17.1
2000 03 12    14 39.97   +47 43.0    0.060    1.025   119.7    57.4    16.9
2000 03 13    14 54.62   +54 34.4    0.052    1.017   114.2    63.1    16.8
2000 03 14    15 22.88   +63 13.0    0.046    1.008   106.7    70.8    16.7
2000 03 15    16 35.2    +73 08.4    0.041    1.000    96.7    80.9    16.8
2000 03 16    20 21.5    +78 31.4    0.039    0.992    84.4    93.3    17.1
2000 03 17    23 35.86   +69 53.0    0.039    0.983    71.2   106.6    17.8
2000 03 18    00 35.87   +57 19.0    0.041    0.975    58.9   119.0    18.7
2000 03 19    01 00.61   +46 04.6    0.046    0.966    48.8   129.2    19.8
2000 03 20    01 13.74   +37 03.3    0.053    0.957    41.0   136.9    20.9
2000 03 21    01 21.78   +30 02.9    0.060    0.948    35.2   142.7    21.9
2000 03 22    01 27.16   +24 37.1    0.068    0.939    30.9   146.9    22.8

Gareth V. Williams           (C) Copyright 2000 MPC           M.P.E.C. 2000-E25

Read MPEC 2000-E24 Read MPEC 2000-E26


Our Web policy. Index to the CBAT/MPC/ICQ pages.


Valid HTML 4.01!